Starlink 36190

operational
NORAD ID: 67029 Int'l Des: 2025-293 Owner: SPXS Country: US Constellation: starlink
LEOCIRCULAR

About Starlink 36190

Description loading...

Live Position

Loading 3D Globe...

Upcoming Passes

Altitude History

Altitude vs Time

uPlot chart will show altitude changes over time

Two-Line Element Set

1 67029C 25293AC 25346.09979167 .00120490 00000+0 15955-3 0 3462
2 67029 69.9970 325.9379 0005400 263.8195 180.2752 16.06356765 18
Epoch: Dec 12, 2025 • Age: 51 hours

Current Status

Altitude 259.0 km
Velocity 7.75 km/s
Sub-Earth Point -4.42°S, 174.85°W
Launch Date Dec 10, 2025
Age 3 days
Type internet

Technical Details

Classification Payload
Mass 575.00 kg
Dry Mass 530.00 kg
Total Mass 575.00 kg
Length 0.30 m
Diameter 4.10 m
Span 29.00 m
Shape Box + pan
Manufacturer SPXS
Bus Type Starlink V2MO
Phase Status In Orbit
Owner/State SPXS/US

Large Constellations

Loading constellations...